SL-4 R/B

Last updated on Sun Dec 14 2025 00:02:16 GMT+0000 (Coordinated Universal Time)

1 39679U 14021B 25347.33117436 .00017718 00000+0 41810-3 0 9991 2 39679 51.6090 37.7195 0101641 148.2454 212.4714 15.36694990642982

Satellite not in orbit